La Farge, WI (54639)

10:19 AM CDT on August 28, 2015 (GMT -0500)
Haugrud Hollow | | Change Station
CLOSE
Current Station
Personal Weather Station
Location: La Farge, WI
Elevation: 940 ft
Nearby Weather Stations

Elev 940 ft 43.59 °N, 90.76 °W | Updated 4 minutes ago

Rain
Rain
62.4 °F
Feels Like 62.4 °F
N
0.0
Wind Variable Wind from South
Gusts 1.6 mph

Today
High -- | Low -- °F
--% Chance of Precip.
Yesterday
High -- | Low -- °F
Precip. -- in
6:21 AM 7:45 PM
Waxing Gibbous, 98% visible
Pressure 30.10 in
Visibility 5.0 miles
Clouds Scattered Clouds 3600 ft
Mostly Cloudy 4300 ft
Mostly Cloudy 5000 ft
Dew Point 62 °F
Humidity 98%
Rainfall 0.00 in
Snow Depth Not available.
UV 2 out of 12
Pollen 3.70 out of 12
Air Quality Not available.
Flu Activity Not available.
METAR KY51 281455Z AUTO 17003KT 5SM SCT036 BKN043 BKN050 17/17 A3010 RMK AO1 T01670167
Pressure 30.10 in
Visibility 5.0 miles
Clouds Scattered Clouds 3600 ft
Mostly Cloudy 4300 ft
Mostly Cloudy 5000 ft
Dew Point 62 °F
Humidity 98%
Rainfall 0.00 in
Snow Depth Not available.
UV 2 out of 12
Pollen 3.70 out of 12
Air Quality Not available.
Flu Activity Not available.
METAR KY51 281455Z AUTO 17003KT 5SM SCT036 BKN043 BKN050 17/17 A3010 RMK AO1 T01670167

10-Day Weather Forecast

×

Almanac

Astronomy

Aug. 28, 2015 Rise Set
Actual Time
Civil Twilight
Nautical Twilight
Astronomical Twilight
Moon
Length of Visible Light
Length of Day
Tomorrow will be .
, % of the Moon is Illuminated

Today's Extremes

State Highs State Lows

Community

WunderPhotos

Upload Photos

1,850,393 photos uploaded!

WunderBlogs® & News

Nearby

Air Quality

  Air Quality AQ Index Pollutant
Not available.

Snow Depth

Station Depth Elevation

Earthquake Activity

City Distance Mag. Time & Date
Minimum magnitude displayed is 2.5.

Coastal Water Temperatures

Place Temperature

Stations

Nearby Weather Stations

Station Location Temp. Windchill Dew Point Humidity Wind Precip. Elev Updated Type